Carbondale, IL

10:36 PM CDT on October 20, 2019 (GMT -0500)
Southern Illinois

Weather History for KMDH - July, 2019

Change the Weather History Date:

Tuesday, July 16, 2019

  Actual Average Record
Temperature  
Mean Temperature 78 °F -  
Max Temperature 84 °F 89 °F 102 °F (1914)
Min Temperature 73 °F 65 °F 48 °F (1930)
Cooling Degree Days 14    
Growing Degree Days 28 (Base 50)    
Moisture  
Dew Point 73 °F    
Average Humidity 91    
Maximum Humidity 97    
Minimum Humidity 72    
Precipitation  
Precipitation 0.82 in - - ()
Sea Level Pressure  
Sea Level Pressure 29.91 in    
Wind  
Wind Speed 9 mph (South)    
Max Wind Speed 17 mph    
Max Gust Speed 24 mph    
Visibility 7 miles    
Events Rain    
Averages and records for this station are not official NWS values.
T = Trace of Precipitation, MM = Missing Value Source: NWS Daily Summary

Daily Weather History Graph

Daily Weather History Graph

Search for Another Location

Airport or City:

Astronomy

Jul. 16, 2019 Rise Set
Actual Time 5:47 AM CDT 8:18 PM CDT
Civil Twilight 5:17 AM CDT 8:48 PM CDT
Nautical Twilight 4:39 AM CDT 9:26 PM CDT
Astronomical Twilight 3:57 AM CDT 10:07 PM CDT
Moon 8:24 PM CDT (7/16) 5:26 AM CDT (7/16)
Length of Visible Light 15h 31m
Length of Day
14h 30m
Full, 100% of the Moon is Illuminated
Jul 16
Full
Jul 16
Full
Jul 24
Last Quarter
Jul 31
New
Aug 7
First Quarter

Hourly Weather History & Observations

Time (CDT) Temp. Heat Index Dew Point Humidity Pressure Visibility Wind Dir Wind Speed Gust Speed Precip Events Conditions
12:20 AM 73.0 °F - 72.0 °F 96% 29.93 in 10.0 mi ESE 5.8 mph - 0.00 in   Overcast
12:52 AM 73.9 °F - 72.0 °F 93% 29.92 in 10.0 mi South 10.4 mph - 0.00 in   Overcast
1:10 AM 73.9 °F - 72.0 °F 93% 29.93 in 10.0 mi South 6.9 mph - N/A   Scattered Clouds
1:42 AM 73.9 °F - 72.0 °F 93% 29.92 in 8.0 mi South 5.8 mph - 0.00 in Rain Light Rain
1:52 AM 73.9 °F - 73.0 °F 97% 29.92 in 5.0 mi South 3.5 mph - 0.02 in Rain Light Rain
2:52 AM 73.9 °F - 72.0 °F 93% 29.91 in 10.0 mi SSE 8.1 mph - 0.00 in   Overcast
3:23 AM 73.0 °F - 71.1 °F 93% 29.91 in 10.0 mi South 8.1 mph - N/A   Overcast
3:43 AM 73.0 °F - 72.0 °F 96% 29.91 in 7.0 mi South 5.8 mph - 0.00 in Rain Light Rain
3:52 AM 73.0 °F - 72.0 °F 96% 29.90 in 9.0 mi South 5.8 mph - 0.00 in Rain Light Rain
4:07 AM 73.0 °F - 72.0 °F 96% 29.91 in 6.0 mi South 6.9 mph - 0.00 in Rain Light Rain
4:38 AM 73.0 °F - 72.0 °F 96% 29.91 in 5.0 mi South 9.2 mph - 0.02 in Rain Light Rain
4:52 AM 73.0 °F - 71.1 °F 93% 29.90 in 10.0 mi South 8.1 mph - 0.02 in   Mostly Cloudy
4:57 AM 73.0 °F - 71.1 °F 93% 29.91 in 10.0 mi South 6.9 mph - N/A   Mostly Cloudy
5:07 AM 73.0 °F - 71.1 °F 93% 29.91 in 10.0 mi SSE 5.8 mph - N/A   Mostly Cloudy
5:22 AM 73.0 °F - 72.0 °F 96% 29.92 in 10.0 mi SSE 5.8 mph - N/A   Mostly Cloudy
5:52 AM 73.0 °F - 71.1 °F 93% 29.91 in 9.0 mi SSE 5.8 mph - N/A   Overcast
6:49 AM 73.4 °F - 71.6 °F 94% 29.92 in 9.0 mi SSE 6.9 mph - 0.00 in   Overcast
6:52 AM 73.9 °F - 72.0 °F 93% 29.91 in 9.0 mi SSE 9.2 mph - 0.00 in   Overcast
7:44 AM 73.9 °F - 72.0 °F 93% 29.93 in 1.8 mi South 6.9 mph - 0.02 in Rain Light Rain
7:52 AM 73.0 °F - 72.0 °F 96% 29.91 in 2.0 mi South 5.8 mph - 0.04 in Rain Light Rain
7:56 AM 73.9 °F - 72.0 °F 93% 29.93 in 3.0 mi SSE 6.9 mph - 0.00 in Rain Light Rain
8:01 AM 73.9 °F - 72.0 °F 93% 29.93 in 2.5 mi SE 6.9 mph - 0.01 in Rain Light Rain
8:09 AM 73.9 °F - 73.0 °F 97% 29.93 in 2.5 mi SSE 9.2 mph - 0.02 in Rain Light Rain
8:11 AM 73.9 °F - 73.0 °F 97% 29.93 in 2.5 mi SSE 6.9 mph - 0.02 in Rain Light Rain
8:18 AM 73.9 °F - 73.0 °F 97% 29.93 in 3.0 mi South 8.1 mph - 0.03 in Rain Light Rain
8:27 AM 75.0 °F - 73.9 °F 96% 29.92 in 10.0 mi South 10.4 mph - 0.03 in   Overcast
8:52 AM 73.9 °F - 73.0 °F 97% 29.92 in 2.0 mi South 6.9 mph - 0.14 in Rain Heavy Rain
8:56 AM 73.9 °F - 73.0 °F 97% 29.93 in 0.8 mi South 10.4 mph - 0.07 in Rain Heavy Rain
9:07 AM 73.9 °F - 73.0 °F 97% 29.92 in 1.0 mi SSE 9.2 mph - 0.20 in Rain Heavy Rain
9:10 AM 73.9 °F - 73.0 °F 97% 29.92 in 2.0 mi SSE 11.5 mph - 0.20 in Rain Rain
9:12 AM 73.9 °F - 73.0 °F 97% 29.92 in 4.0 mi South 11.5 mph - 0.20 in Rain Light Rain
9:31 AM 75.0 °F - 73.0 °F 94% 29.92 in 7.0 mi South 8.1 mph - 0.20 in Rain Light Rain
9:52 AM 75.0 °F - 73.0 °F 94% 29.91 in 8.0 mi SSE 9.2 mph - 0.21 in Rain Light Rain
10:13 AM 75.9 °F - 73.9 °F 94% 29.93 in 4.0 mi South 9.2 mph - 0.00 in Rain Light Rain
10:52 AM 78.1 °F - 73.9 °F 87% 29.92 in 10.0 mi SSW 12.7 mph - 0.00 in   Overcast
11:32 AM 75.9 °F - 73.9 °F 94% 29.93 in 1.8 mi SSW 9.2 mph - 0.06 in Rain Heavy Rain
11:41 AM 75.9 °F - 73.9 °F 94% 29.93 in 3.0 mi South 8.1 mph - 0.07 in Rain Light Rain
11:52 AM 75.9 °F - 73.9 °F 94% 29.92 in 6.0 mi South 9.2 mph - 0.08 in Rain Light Rain
12:03 PM 77.0 °F - 73.9 °F 90% 29.93 in 2.0 mi SSW 15.0 mph - 0.01 in Rain Light Rain
12:18 PM 75.9 °F - 73.9 °F 94% 29.93 in 4.0 mi SSW 13.8 mph - 0.03 in Rain Light Rain
12:52 PM 79.0 °F - 75.0 °F 88% 29.91 in 10.0 mi SSW 13.8 mph - 0.03 in   Overcast
1:52 PM 80.1 °F 84.5 °F 73.9 °F 81% 29.89 in 10.0 mi SSW 17.3 mph - 0.00 in   Overcast
1:59 PM 80.1 °F 84.5 °F 73.9 °F 81% 29.90 in 10.0 mi SSW 17.3 mph - N/A   Mostly Cloudy
2:52 PM 82.9 °F 90.2 °F 75.0 °F 77% 29.88 in 10.0 mi SSW 17.3 mph 21.9 mph N/A   Mostly Cloudy
2:59 PM 82.9 °F 89.4 °F 73.9 °F 74% 29.89 in 10.0 mi SSW 12.7 mph - N/A   Mostly Cloudy
3:20 PM 84.9 °F 94.1 °F 75.9 °F 74% 29.88 in 10.0 mi SW 13.8 mph 20.7 mph N/A   Mostly Cloudy
3:28 PM 82.9 °F 89.4 °F 73.9 °F 74% 29.88 in 10.0 mi SSW 12.7 mph 24.2 mph N/A   Mostly Cloudy
3:38 PM 84.0 °F 91.9 °F 75.0 °F 74% 29.88 in 10.0 mi SSW 15.0 mph - N/A   Mostly Cloudy
3:47 PM 82.4 °F 88.2 °F 73.4 °F 74% 29.88 in 10.0 mi SSW 16.1 mph - N/A   Mostly Cloudy
3:52 PM 82.9 °F 89.4 °F 73.9 °F 74% 29.87 in 10.0 mi SSW 15.0 mph - N/A   Mostly Cloudy
4:02 PM 84.0 °F 91.2 °F 73.9 °F 72% 29.87 in 10.0 mi SSW 13.8 mph - N/A   Mostly Cloudy
4:52 PM 82.9 °F 90.2 °F 75.0 °F 77% 29.87 in 10.0 mi SSW 11.5 mph - N/A   Scattered Clouds
5:20 PM 78.1 °F - 75.0 °F 90% 29.88 in 2.5 mi SSW 9.2 mph - 0.04 in Rain Light Rain
5:27 PM 78.1 °F - 75.9 °F 93% 29.88 in 3.0 mi SSW 9.2 mph - 0.05 in Rain Rain
5:52 PM 79.0 °F - 75.9 °F 90% 29.86 in 10.0 mi SSW 11.5 mph - 0.05 in   Overcast
6:29 PM 79.0 °F - 75.0 °F 88% 29.87 in 1.8 mi SSW 11.5 mph - 0.05 in Rain Heavy Rain
6:50 PM 75.2 °F - 73.4 °F 94% 29.89 in 2.0 mi SSW 17.3 mph - 0.23 in Rain Light Rain
6:52 PM 75.9 °F - 73.9 °F 94% 29.88 in 6.0 mi SSW 16.1 mph - 0.23 in Rain Light Rain
7:19 PM 75.9 °F - 73.9 °F 94% 29.89 in 10.0 mi SSW 9.2 mph - 0.00 in   Mostly Cloudy
7:52 PM 75.9 °F - 73.9 °F 94% 29.89 in 10.0 mi South 5.8 mph - 0.00 in   Partly Cloudy
8:43 PM 75.9 °F - 75.0 °F 97% 29.91 in 10.0 mi South 5.8 mph - N/A   Mostly Cloudy
8:52 PM 75.9 °F - 75.0 °F 97% 29.90 in 10.0 mi South 4.6 mph - N/A   Overcast
9:04 PM 75.9 °F - 75.0 °F 97% 29.92 in 10.0 mi SSW 3.5 mph - N/A   Overcast
9:23 PM 75.9 °F - 75.0 °F 97% 29.93 in 9.0 mi SSW 6.9 mph - N/A   Overcast
9:30 PM 75.9 °F - 75.0 °F 97% 29.93 in 10.0 mi SSW 6.9 mph - N/A   Mostly Cloudy
9:52 PM 75.9 °F - 73.9 °F 94% 29.91 in 10.0 mi SW 5.8 mph - N/A   Clear
10:52 PM 75.0 °F - 73.9 °F 96% 29.92 in 10.0 mi SSW 5.8 mph - N/A   Scattered Clouds
11:43 PM 75.0 °F - 73.9 °F 96% 29.93 in 9.0 mi SSW 6.9 mph - N/A   Mostly Cloudy
11:52 PM 75.0 °F - 73.9 °F 96% 29.92 in 9.0 mi SSW 8.1 mph - N/A   Mostly Cloudy